Regional Weather Roundup
Issued by NWS

Home | Current Version | Previous Version | Graphics & Text | Print | Product List | Glossary On
Versions: 1 2 3 4 5 6 7 8 9 10 11 12 13 14 15 16 17 18 19 20 21 22 23 24 25 26 27 28 29 30 31 32 33 34 35 36 37 38 39 40 41 42 43 44 45 46 47 48 49 50
433
ASUS43 KBIS 231002
RWRND

NORTH DAKOTA REGIONAL WEATHER ROUNDUP
NATIONAL WEATHER SERVICE BISMARCK ND
400 AM CST THU FEB 23 2017

NOTE: "FAIR" INDICATES FEW OR NO CLOUDS BELOW 12,000 FEET WITH NO
SIGNIFICANT WEATHER AND/OR OBSTRUCTIONS TO VISIBILITY.


NDZ001>003-009>011-017-231100-
NORTHWEST NORTH DAKOTA

CITY           SKY/WX    TMP DP  RH WIND       PRES   REMARKS
WILLISTON      CLOUDY    28  26  92 SW5       30.01R
MINOT          FLURRIES  31  28  89 SW7       29.97R
MINOT AFB      MOCLDY    29  27  90 NW8       29.96R
$$

NDZ018>021-031>035-040>046-231100-
SOUTHWEST NORTH DAKOTA

CITY           SKY/WX    TMP DP  RH WIND       PRES   REMARKS
BISMARCK       CLOUDY    28  26  92 CALM      30.01R
DICKINSON      CLOUDY    23  21  92 CALM      29.95F
GARRISON         N/A     27  24  89 NW6       29.99R
HETTINGER ARPT CLOUDY    27  24  89 NE6       29.95F
$$

NDZ004>008-012>016-024-026-027-054-231100-
NORTHEAST NORTH DAKOTA

CITY           SKY/WX    TMP DP  RH WIND       PRES   REMARKS
GRAND FORKS    CLOUDY    29  22  75 N7        29.99R
GRND FRKS AFB  CLOUDY    28  24  84 N6        29.99S
DEVILS LAKE    MOCLDY    22  20  92 N6        30.00R WCI  14
$$

NDZ022-023-025-028>030-036>039-047>053-231100-
SOUTHEAST NORTH DAKOTA

CITY           SKY/WX    TMP DP  RH WIND       PRES   REMARKS
FARGO          CLEAR     26  23  88 NW8       29.98S WCI  18
JAMESTOWN      FAIR      22  21  96 NW7       29.97S WCI  13
$$





USA.gov is the U.S. government's official web portal to all federal, state and local government web resources and services.